{"data":{"norad_id":68198,"intl_designator":"2026-052A","name":"2026-052A","alt_names":[],"object_type":"PAYLOAD","status":"ACTIVE","operator":null,"country":"PRC","launch_date":"2026-03-16","launch_site_code":"JSC","launch_vehicle":null,"mission":null,"orbit_class":"UNKNOWN","rcs_meters":null,"size_class":null,"mass_kg":null,"dimensions":null,"purposes":[],"wikipedia_slug":null,"has_3d_model":false,"image_url":null,"decayed_at":null,"tle_current":{"epoch":"2026-09-19T10:36:22.917888Z","epoch_age_seconds":166873,"freshness":"FRESH","line1":"1 68198U 26052A   26262.44193192  .00003640  00000+0  21606-3 0  9998","line2":"2 68198  97.5248 335.8045 0012508 350.2020   9.8965 15.11897227 28285","mean_motion":15.11897227,"eccentricity":0.0012508,"inclination_deg":97.5248,"raan_deg":335.8045,"arg_perigee_deg":350.202,"mean_anomaly_deg":9.8965,"bstar":0.00021606,"rev_number":2828,"period_min":95.244569160123,"perigee_km":521.77320324528,"apogee_km":539.05563547595,"semimajor_km":6908.5514193606,"source":"CELESTRAK","updated_at":"2026-09-20T09:00:24.067526Z"}}}